Bedford, MA

5:25 PM EDT on August 27, 2016 (GMT -0400)
Hanscom

Weather History for KBED - May, 2013

Change the Weather History Date:

Sunday, May 5, 2013

  Actual Average Record
Temperature  
Mean Temperature 44 °F -  
Max Temperature 59 °F 64 °F 82 °F (1960)
Min Temperature 30 °F 41 °F 29 °F (1974)
Degree Days  
Heating Degree Days 22    
Moisture  
Dew Point 34 °F    
Average Humidity 84    
Maximum Humidity 100    
Minimum Humidity 47    
Precipitation  
Precipitation 0.00 in - - ()
Sea Level Pressure  
Sea Level Pressure 30.32 in    
Wind  
Wind Speed 1 mph (East)    
Max Wind Speed 13 mph    
Max Gust Speed -    
Visibility 6 miles    
Events Fog    
Averages and records for this station are not official NWS values.
T = Trace of Precipitation, MM = Missing Value Source: NWS Daily Summary

Daily Weather History Graph

Daily Weather History Graph

Search for Another Location

Airport or City:

Trip Planner

Search our weather history database for the weather conditions in past years. The results will help you decide how hot, cold, wet, or windy it might be!

Date:

Astronomy

May. 05, 2013 Rise Set
Actual Time 5:34 AM EDT 7:49 PM EDT
Civil Twilight 5:03 AM EDT 8:20 PM EDT
Nautical Twilight 4:25 AM EDT 8:59 PM EDT
Astronomical Twilight 3:42 AM EDT 9:42 PM EDT
Moon 3:08 AM EDT (5/5) 3:41 PM EDT (5/5)
Length of Visible Light 15h 17m
Length of Day
14h 15m
Waning Crescent, 18% of the Moon is Illuminated
May 5
Waning Crescent
May 9
New
May 18
First Quarter
May 25
Full
May 31
Last Quarter

Hourly Weather History & Observations

Time (EDT) Temp. Windchill Dew Point Humidity Pressure Visibility Wind Dir Wind Speed Gust Speed Precip Events Conditions
12:56 AM 36.0 °F - 35.1 °F 97% 30.37 in 9.0 mi Calm Calm - N/A   Clear
1:56 AM 35.1 °F - 32.0 °F 89% 30.36 in 6.0 mi Calm Calm - N/A   Clear
2:06 AM 33.8 °F - 32.0 °F 93% 30.31 in 1.8 mi Calm Calm - N/A   Clear
2:19 AM 35.6 °F - 33.8 °F 93% 30.31 in 3.0 mi Calm Calm - N/A   Partly Cloudy
2:24 AM 33.8 °F - 33.8 °F 100% 30.31 in 1.2 mi Calm Calm - N/A   Partly Cloudy
2:26 AM 33.8 °F - 33.8 °F 100% 30.31 in 0.8 mi Calm Calm - N/A   Mist
2:42 AM 33.8 °F - 32.0 °F 93% 30.31 in 1.2 mi Calm Calm - N/A   Scattered Clouds
2:44 AM 33.8 °F - 32.0 °F 93% 30.31 in 4.0 mi Calm Calm - N/A   Scattered Clouds
2:56 AM 34.0 °F - 32.0 °F 92% 30.36 in 8.0 mi Calm Calm - N/A   Partly Cloudy
3:56 AM 30.9 °F - 30.0 °F 96% 30.36 in 6.0 mi Calm Calm - N/A   Clear
4:07 AM 32.0 °F - 30.2 °F 93% 30.31 in 1.5 mi Calm Calm - N/A   Scattered Clouds
4:09 AM 32.0 °F - 30.2 °F 93% 30.31 in 0.8 mi Calm Calm - N/A   Mist
4:19 AM 32.0 °F - 30.2 °F 93% 30.30 in 0.2 mi Calm Calm - N/A Fog Fog
4:26 AM 30.2 °F - 30.2 °F 100% 30.30 in 1.2 mi Calm Calm - N/A   Mostly Cloudy
4:28 AM 30.2 °F - 30.2 °F 100% 30.30 in 3.0 mi Calm Calm - N/A   Mostly Cloudy
4:41 AM 32.0 °F - 30.2 °F 93% 30.30 in 9.0 mi Calm Calm - N/A   Scattered Clouds
4:56 AM 30.0 °F - 28.9 °F 96% 30.35 in 10.0 mi Calm Calm - N/A   Clear
5:31 AM 30.2 °F - 28.4 °F 93% 30.30 in 4.0 mi Calm Calm - N/A   Mostly Cloudy
5:34 AM 30.2 °F - 28.4 °F 93% 30.30 in 1.8 mi Calm Calm - N/A   Mostly Cloudy
5:43 AM 30.2 °F - 28.4 °F 93% 30.31 in 0.2 mi Calm Calm - N/A Fog Light Freezing Fog
5:56 AM 30.9 °F - 30.0 °F 96% 30.35 in 0.2 mi Calm Calm - N/A Fog Light Freezing Fog
6:03 AM 30.2 °F - 30.2 °F 100% 30.31 in 0.2 mi Calm Calm - N/A Fog Light Freezing Fog
6:21 AM 30.2 °F - 30.2 °F 100% 30.31 in 0.2 mi Calm Calm - N/A Fog Light Freezing Fog
6:34 AM 32.0 °F - 30.2 °F 93% 30.32 in 1.2 mi Calm Calm - N/A   Overcast
6:38 AM 32.0 °F - 32.0 °F 100% 30.32 in 3.0 mi Calm Calm - N/A   Mostly Cloudy
6:46 AM 33.8 °F - 33.8 °F 100% 30.32 in 7.0 mi Calm Calm - N/A Fog Patches of Fog
6:56 AM 35.1 °F - 35.1 °F 100% 30.37 in 7.0 mi Calm Calm - N/A Fog Patches of Fog
7:03 AM 35.6 °F - 35.6 °F 100% 30.32 in 2.0 mi Calm Calm - N/A Fog Patches of Fog
7:08 AM 37.4 °F - 35.6 °F 93% 30.32 in 7.0 mi Calm Calm - N/A Fog Patches of Fog
7:56 AM 42.1 °F 40.2 °F 39.0 °F 89% 30.37 in 10.0 mi North 3.5 mph - N/A   Scattered Clouds
8:56 AM 48.9 °F - 37.9 °F 66% 30.37 in 10.0 mi NE 4.6 mph - N/A   Scattered Clouds
9:56 AM 50.0 °F - 37.0 °F 61% 30.36 in 10.0 mi NE 4.6 mph - N/A   Clear
10:56 AM 54.0 °F - 39.0 °F 57% 30.35 in 10.0 mi Calm Calm - N/A   Partly Cloudy
11:56 AM 57.0 °F - 37.9 °F 49% 30.33 in 10.0 mi Variable 5.8 mph - N/A   Clear
12:56 PM 57.0 °F - 37.9 °F 49% 30.33 in 10.0 mi SE 6.9 mph - N/A   Clear
1:56 PM 57.9 °F - 37.9 °F 47% 30.33 in 10.0 mi SE 10.4 mph - N/A   Clear
2:56 PM 57.0 °F - 37.9 °F 49% 30.32 in 10.0 mi ESE 10.4 mph - N/A   Clear
3:56 PM 57.0 °F - 37.9 °F 49% 30.30 in 10.0 mi ESE 10.4 mph - N/A   Clear
4:56 PM 57.0 °F - 37.9 °F 49% 30.30 in 10.0 mi ESE 12.7 mph - N/A   Clear
5:56 PM 54.0 °F - 37.0 °F 53% 30.30 in 10.0 mi ESE 8.1 mph - N/A   Clear
6:56 PM 51.1 °F - 37.0 °F 59% 30.30 in 10.0 mi ESE 11.5 mph - N/A   Clear
7:56 PM 48.0 °F - 37.0 °F 66% 30.30 in 10.0 mi East 8.1 mph - N/A   Clear
8:56 PM 46.0 °F 44.8 °F 37.0 °F 71% 30.31 in 10.0 mi ENE 3.5 mph - N/A   Clear
9:56 PM 44.1 °F 42.5 °F 37.9 °F 79% 30.32 in 10.0 mi East 3.5 mph - N/A   Clear
10:56 PM 39.9 °F - 37.0 °F 89% 30.31 in 10.0 mi Calm Calm - N/A   Clear
11:56 PM 37.9 °F - 36.0 °F 93% 30.31 in 10.0 mi Calm Calm - N/A   Clear